Regional Weather Roundup
Issued by NWS

Home | Current Version | Previous Version | Graphics & Text | Print | Product List | Glossary On
Versions: 1 2 3 4 5 6 7 8 9 10 11 12 13 14 15 16 17 18 19 20 21 22 23 24 25 26 27 28 29 30 31 32 33 34 35 36 37 38 39 40 41 42 43 44 45 46 47 48 49 50
000
ASUS43 KMKX 292320
RWRWI

WISCONSIN REGIONAL WEATHER ROUNDUP
NATIONAL WEATHER SERVICE MILWAUKEE/SULLIVAN WI
600 PM CDT FRI MAY 29 2015

NOTE: "FAIR" INDICATES FEW OR NO CLOUDS BELOW 12,000 FEET WITH NO
SIGNIFICANT WEATHER AND/OR OBSTRUCTIONS TO VISIBILITY.

WIZ001-002-006>008-014>016-023>028-300000-
NORTHWEST WISCONSIN

CITY           SKY/WX    TMP DP  RH WIND       PRES   REMARKS
SUPERIOR ARPT  CLOUDY    58  52  79 N14       29.98R
ASHLAND        LGT RAIN  60  57  89 N10       29.95R
HAYWARD        LGT RAIN  61  57  87 N9        29.94R
SIREN          RAIN      61  59  92 N8        29.95R
CUMBERLAND     RAIN      63  59  88 N12       29.93R
RICE LAKE      CLOUDY    64  61  90 CALM      29.93S
CHETEK         LGT RAIN  63  62  98 N5        29.92S
LADYSMITH      LGT RAIN  64  62  94 N5        29.93S
EAU CLAIRE     NOT AVBL
MENOMONIE      LGT RAIN  67  66  96 N10G17    29.89F
NEW RICHMOND   LGT RAIN  64  62  96 N9        29.91F
OSCEOLA        RAIN      63  63 100 N12       29.95S
$$

WIZ003>005-009-010-017-018-300000-
NORTH CENTRAL WISCONSIN

CITY           SKY/WX    TMP DP  RH WIND       PRES   REMARKS
MANITOWISH WTR LGT RAIN  61  61 100 N6        29.91S
ARBOR VITAE    HVY RAIN  62  60  93 NW8       29.92R
WOODRUFF       HVY RAIN  62  60  93 NW8       29.92R
RHINELANDER    LGT RAIN  68  62  81 W5        29.90S
EAGLE RIVER    LGT RAIN  67  60  80 W5        29.89S
LAND O LAKES   CLOUDY    64  57  79 N9        29.91R
PHILLIPS       LGT RAIN  61  61  99 NW3       29.91R
TOMAHAWK       CLOUDY    67  64  87 CALM      29.90S
MEDFORD        DRIZZLE   67  65  92 W5        29.90S
MERRILL        CLOUDY    68  65  90 W7        29.89S
$$

WIZ029-030-035-036-043>047-300000-
CENTRAL WISCONSIN

CITY           SKY/WX    TMP DP  RH WIND       PRES   REMARKS
WAUSAU         CLOUDY    66  64  93 N5        29.87S
MOSINEE        NOT AVBL
MARSHFIELD     LGT RAIN  67  63  87 W6        29.89S
STEVENS POINT  DRIZZLE   73  62  67 W6        29.86S
WAUPACA        PTSUNNY   78  66  66 SE8       29.85S HX  80
WAUTOMA        NOT AVBL
WISC RAPIDS    TSTM      65  62  90 NW15G25   29.91R VSB 1
CAMP DOUGLAS   NOT AVBL
$$

WIZ011>013-019>022-031-037>040-048>050-300000-
NORTHEAST WISCONSIN

CITY           SKY/WX    TMP DP  RH WIND       PRES   REMARKS
ANTIGO         HVY RAIN  65  65  97 SW6       29.90R
SHAWANO        PTSUNNY   80  65  59 S5        29.84F HX  81
OCONTO         CLOUDY    73  66  79 S9        29.85F
STURGEON BAY   PTSUNNY   72  63  73 S13G18    29.88F
GREEN BAY      PTSUNNY   76  67  73 S10       29.86F
MANITOWOC      NOT AVBL
APPLETON       NOT AVBL
CLINTONVILLE   PTSUNNY   77  63  61 S9        29.84F
OSHKOSH        MOSUNNY   77  66  68 S8        29.86F
$$

WIZ032>034-041-042-053>061-300000-
SOUTHWEST WISCONSIN

CITY           SKY/WX    TMP DP  RH WIND       PRES   REMARKS
LA CROSSE      CLOUDY    68  65  90 NW16      29.86R
SPARTA         CLOUDY    72  64  75 N8        29.87S
VIROQUA        CLOUDY    76  64  65 SW7       29.88S
BOSCOBEL       CLOUDY    80  64  58 SW6       29.85F HX  82
PRAIRIE DU CHI CLOUDY    78  60  53 SW7       29.85F HX  80
PLATTEVILLE    CLOUDY    74  68  82 S7        29.88F
$$

WIZ056-057-062-063-064-067-068-300000-
SOUTH CENTRAL WISCONSIN

CITY           SKY/WX    TMP DP  RH WIND       PRES   REMARKS
REEDSBURG      MOSUNNY   77  64  64 W8        29.86F
BARABOO/DELLS  MOSUNNY   77  65  66 SW8       29.87S
LONE ROCK      NOT AVBL
MINERAL POINT  PTSUNNY   77  64  65 S6        29.89F
MADISON        LGT RAIN  76  66  71 CALM      29.87F
MIDDLETON      CLOUDY    74  66  77 W6G12     29.89S
WATERTOWN      PTSUNNY  N/A N/A N/A SW8       29.88S
MONROE         RAIN      70  64  83 W14       29.90S
JANESVILLE     NOT AVBL
$$

WIZ051-052-058>065-066-070>072-300000-
SOUTHEAST WISCONSIN

CITY           SKY/WX    TMP DP  RH WIND       PRES   REMARKS
MILWAUKEE      LGT RAIN  73  68  84 SW6       29.88F
WAUKESHA       MOSUNNY   72  66  83 SW8       29.90F
MILWAUKEE/TIMM MOSUNNY   70  66  88 SW3       29.89F
RACINE         CLOUDY    68  64  87 S7        29.91S
BURLINGTON     CLOUDY    71  65  82 SW8       29.89F
KENOSHA        PTSUNNY   77  69  76 W6        29.89F
FOND DU LAC    PTSUNNY   76  65  68 SW9       29.86F
SHEBOYGAN      CLOUDY    69  66  90 S6        29.88F
WEST BEND      RAIN      68  64  88 CALM      29.89S
JUNEAU         CLOUDY    74  66  75 S12       29.89S
$$

LSZ147-162-300000-
LAKE SUPERIOR

STATION/POSITION TIME  TEMP    WIND        PRES    WAVE
                       AIR SEA DIR/SP/G            HT/PER
                 (UTC) (F)     (DEG/KT/KT) (MB)    (FT/S)
W MID LAKE BUOY  2150   42 37  300/  8/ 12   N/A     1/ 2
DEVILS ISLAND    2200   57     340/ 18/ 19   N/A
PORT WING        2140   53     260/  2/  6   N/A
SAXON HARBOR     2200   57        CALM       N/A
$$

LMZ867-665-643>646-300000-
LAKE MICHIGAN

STATION/POSITION TIME  TEMP    WIND        PRES    WAVE
                       AIR SEA DIR/SP/G            HT/PER
                 (UTC) (F)     (DEG/KT/KT) (MB)    (FT/S)
CHAMBERS ISLAND  2200   71     160/  5/ 12   N/A
N MID LAKE BUOY  2150   42 37  220/  8/ 10   N/A     1/ 3
NORTHPORT PIER   2100   57     150/  7/ 10   N/A
SISTER BAY       2218   72     190/ 16/ 19   N/A
ALGOMA LAKESHORE 2238          210/ 13/ 14   N/A
KEWAUNEE LAKESHO 2200   51     170/ 10/ 13   N/A
SHEBOYGAN LAKESH 2200   65     180/ 17/ 18   N/A
PORT WASHINGTON  2100   61     190/  4/  9   N/A
ATWATER BUOY     2200   56     160/ 10/ 10   N/A
MILWAUKEE LAKESH 2200   58     160/ 10/ 10   N/A
S MID LAKE BUOY  2150   48 38  130/ 10/ 12   N/A     0
KENOSHA   LAKESH 2100   63     200/  7/ 11   N/A
$$

TC  - TEMPERATURE IN CELSIUS
VSB - VISIBILITY IN STATUTE MILES
WCI - WIND CHILL INDEX
HX  - HEAT INDEX



USA.gov is the U.S. government's official web portal to all federal, state and local government web resources and services.